Hourly Data Report for October 14, 2013

All times are specified in Local Standard Time (LST). Add 1 hour to adjust for Daylight Saving Time where and when it is observed.

CAPE DORSET A
NUNAVUT

64°13'49.000" N
76°31'30.000" W
48.20 m
2400637
71366
YTE

Download Data

Hourly Data (October 2013)
Hourly Data Report for October 14, 2013
Temp Definition
°C
Dew Point Temp Definition
°C
Rel Hum Definition
%
Wind Dir Definition
10's deg

Wind Spd Definition
km/h
Visibility Definition
km
Stn Press Definition
kPa
Hmdx Definition


Wind Chill Definition


Weather Definition


TIME
00:00 Legend Double Dagger 1.9 1.0 94 11 15 9.7 99.44     LegendNANA
01:00 Legend Double Dagger 3.7 2.5 92 21 15 16.1 99.46     LegendNANA
02:00 Legend Double Dagger 2.9 2.3 96 26 18 9.7 99.49     LegendNANA
03:00 Legend Double Dagger 2.3 1.7 96 25 17 16.1 99.52     LegendNANA
04:00 Legend Double Dagger 2.1 1.5 96 22 11 16.1 99.52     LegendNANA
05:00 Legend Double Dagger 2.7 0.2 84 21 24 16.1 99.55     LegendNANA
06:00 Legend Double Dagger 2.3 0.0 85 17 15 16.1 99.59     LegendNANA
07:00 Legend Double Dagger 2.5 -0.4 81 15 18 16.1 99.61     LegendNANA
08:00 Legend Double Dagger 1.7 -0.2 87 15 21 16.1 99.58     LegendNANA
09:00 Legend Double Dagger 1.7 -0.1 88 13 24 16.1 99.55     LegendNANA
10:00 Legend Double Dagger 1.6 0.0 89 12 22 16.1 99.49     LegendNANA
11:00 Legend Double Dagger 1.4 0.2 92 12 28 16.1 99.46     LegendNANA
12:00 Legend Double Dagger 1.6 0.3 91 12 30 16.1 99.41     LegendNANA
13:00 Legend Double Dagger 1.5 0.2 91 12 33 16.1 99.40     LegendNANA
14:00 Legend Double Dagger 1.6 0.0 89 12 32 16.1 99.37     LegendNANA
15:00 Legend Double Dagger 1.5 0.0 90 12 28 16.1 99.34     LegendNANA
16:00 Legend Double Dagger 1.1 -0.1 92 12 22 16.1 99.31     LegendNANA
17:00 Legend Double Dagger 1.3 -0.2 90 11 39 16.1 99.23     LegendNANA
18:00 Legend Double Dagger 1.4 -0.1 90 11 35 16.1 99.20     LegendNANA
19:00 Legend Double Dagger 1.4 -0.1 90 12 32 16.1 99.16     LegendNANA
20:00 Legend Double Dagger 1.4 0.1 91 12 30 16.1 99.15     LegendNANA
21:00 Legend Double Dagger 1.2 0.1 92 12 30 16.1 99.12     LegendNANA
22:00 Legend Double Dagger 1.4 0.1 91 12 35 16.1 99.10     LegendNANA
23:00 Legend Double Dagger 1.6 0.1 90 13 37 16.1 99.09     LegendNANA

Notes on Data Quality.

Legend

  • E = Estimated
  • M = Missing
  • NA = Not Available
  • ‡ = Partner data that is not subject to review by the National Climate Archives
Date modified: